Location: Czekanka
(50.4925°N, 19.2643°E)
Time: 08:04:22
(UTC+00:00)

SL-16 R/B - Pass Details

Date: 25 September 2024
Orbit: 842 x 846 km, 71.0° (Epoch: 05 October)

Event Time Altitude Azimuth Distance (km) Brightness Sun altitude
Rises 19:22:26 0° 257° (WSW) 3,401 5.9 -26.3°
Reaches altitude 10° 19:25:28 10° 272° (W) 2,468 5.3 -26.7°
Maximum altitude 19:29:47 22° 322° (NW) 1,774 4.5 -27.3°
Drops below altitude 10° 19:34:08 10° 12° (NNE) 2,475 4.9 -27.8°
Sets 19:37:11 0° 28° (NNE) 3,412 5.5 -28.2°
